STARLINK-36825, 68041

Orbit data source: Space-Track

STARLINK-36825, 68041 is a payload satellite owned by SpaceX/Seattle (US) in LEO that was launched on Mon, 02 Mar 2026 UTC via an FALCON 9 launch vehicle from the Air Force Eastern Test Range (AFETR). Payload-class satellites include a variety of spacecraft equipped with specific instruments for various scientific and technological missions. These include communications satellites like Starlink; space stations such as the ISS; scientific satellites like the Hubble; Earth observation satellites from companies like Planet Labs, Umbra, and HawkEye 360; GPS; miniature CubeSats for education and research; and military/defense satellites.

Loading next visibility...
Identifier
68041, 2026-041B
Orbit
LEO
Country
Flag of USUS
Related business
Manufacturer
SpaceX/Seattle
Mission
Operational Commercial Communications
Bus & Motor
STARLINK V2MO, Unknown motor
Mass
575 kg wet, ~530 kg dry
Launch date (UTC)
2026-03-02 (4 months ago)
Launch vehicle
FALCON 9
Launch site
Air Force Eastern Test Range (AFETR)
Object type
Payload
Rocket body
Debris
Shape & HBR
Box + 2 Pan, 17.7 m
Radar Cross Section
36.964 m², Large (>1 m²)

Expand to show TLE details & history
Last TLE update: 12 hours ago

TLE from 12 hours ago
0 STARLINK-36825
1 68041U 26041B   26171.34551422  .00013334  00000-0  40494-3 0  9993
2 68041  53.1589 290.3257 0001503  98.0425 262.0748 15.34411306 17147
Epoch: 2026-06-20T08:17Z
TLE epoch observation values (Epoch: 2026-06-20T08:17:32.428Z)
Latitude
-0.00004°
Longitude
-102.62092°
Altitude
463.713 km
Speed
7.636 km/s
True Right ascension
19h 21m 18s
True Declination
0° 00' 00"
Sunlit
Object was in full shadow at epoch
Visualization orbit readout
Latitude
Unknown
Longitude
Unknown
Altitude
Unknown
Speed
Unknown
Apparent Right ascension
Unknown
Apparent Declination
Unknown
Sunlit
N/A
Visualization observer readout
Local Sidereal Time
07:19:26
Azimuth
Unknown
Elevation
Unknown
Doppler factor
Unknown
Orbital elements
Apogee altitude
463.955 km
Perigee altitude
461.898 km
Semi-major axis
6,841.064 km
Eccentricity
0.00015
Inclination
53.1589°
RAAN
290.3257°
Arg. of periapsis
98.0425°
True anomaly
262.05774°
Mean anomaly
262.0748°
Eccentric anomaly
262.06627°
Mean motion
3.83582 °/min
Orbital period
93.85 mins
BSTAR
0.00040494
Loading maneuver chart data...
Computing Atmospheric mass density...
Loading historical data...
Loading historical data...
Loading historical data...
Loading historical data...
Loading historical data...
Loading historical data...
Loading historical data...

Documentation

Showing up to 5 results
|